{"data":{"norad_id":65553,"epoch":"2026-05-25T00:15:27.504000Z","epoch_age_seconds":67909,"freshness":"FRESH","line1":"1 65553U 25201D   26145.01073500  .00000901  00000+0  13372-3 0  9996","line2":"2 65553  49.9842 147.4452 0008077 184.1600 175.9272 14.84129101 38343","mean_motion":14.84129101,"eccentricity":0.0008077,"inclination_deg":49.9842,"raan_deg":147.4452,"arg_perigee_deg":184.16,"mean_anomaly_deg":175.9272,"bstar":0.00013372,"rev_number":3834,"period_min":97.026599574776,"perigee_km":610.67137333468,"apogee_km":621.97022045979,"semimajor_km":6994.4577968972,"source":"CELESTRAK","updated_at":"2026-05-25T13:38:05.514193Z"}}